Location: Santa Cristina
(46.5667°N, 11.7167°E)
Time: 07:25:08
(UTC+00:00)

SL-08 R/B - Pass Details

Date: 21 April 2021
Orbit: 949 x 1019 km, 83.0° (Epoch: 05 May)

Event Time Altitude Azimuth Distance (km) Brightness Sun altitude
Rises 01:18:37 0° 349° (N) 3,634 8.1 -25.0°
Reaches altitude 10° 01:21:07 10° 348° (NNW) 2,684 7.3 -24.8°
Maximum altitude 01:27:13 72° 265° (W) 999 4.3 -24.2°
Enters shadow 01:28:41 52° 200° (SSW) 1,169 4.5 -24.0°
